Regional Weather Roundup
Issued by NWS

Home | Current Version | Previous Version | Text Only | Print | Product List | Glossary On
Versions: 1 2 3 4 5 6 7 8 9 10 11 12 13 14 15 16 17 18 19 20 21 22 23 24 25 26 27 28 29 30 31 32 33 34 35 36 37 38 39 40 41 42 43 44 45 46 47 48 49 50
000
ASUS43 KFSD 232010
RWRSD

WEATHER ROUNDUP FOR SOUTH DAKOTA
NATIONAL WEATHER SERVICE SIOUX FALLS SD
300 PM CDT THU OCT 23 2014

NOTE: "FAIR" INDICATES FEW OR NO CLOUDS BELOW 12,000 FEET WITH NO
SIGNIFICANT WEATHER AND/OR OBSTRUCTIONS TO VISIBILITY.


SDZ001>005-009-010-012>017-232100-
NORTHWEST AND NORTH CENTRAL SOUTH DAKOTA

CITY           SKY/WX    TMP DP  RH WIND       PRES   REMARKS
BUFFALO          N/A     69  24  18 SW13      29.82F
FAITH            N/A     66  28  24 S12       29.88F
MOBRIDGE       SUNNY     69  43  38 SE7       29.85F
$$

SDZ012>016-024>037-041>051-057-063-072>074-232100-
SOUTHWEST AND SOUTH CENTRAL SOUTH DAKOTA

CITY           SKY/WX    TMP DP  RH WIND       PRES   REMARKS
RAPID CTY ARPT CLOUDY    67  30  25 SE9       29.89F
PIERRE         MOSUNNY   68  36  30 SE8       29.89F
CUSTER         CLOUDY    58  24  27 W14       29.98F
ELLSWORTH AFB  CLOUDY    66  35  31 SE8       29.89F
PHILIP         PTSUNNY   68  28  22 SW9       29.89F
PINE RIDGE     PTSUNNY   69  33  26 SW13      29.95F
SPEARFISH      FAIR      63  28  27 NE3       29.93S
WINNER         FAIR      75  28  17 SW8       29.91F
$$

SDZ004>011-016>023-039-040-232100-
NORTHEAST SOUTH DAKOTA

CITY           SKY/WX    TMP DP  RH WIND       PRES   REMARKS
ABERDEEN       SUNNY     69  44  40 S8        29.89F
WATERTOWN      SUNNY     68  45  43 SW15      29.93F
SISSETON         N/A     72  40  31 W14       29.88F
$$

SDZ017-020-022-023-036>040-048>070-232100-
SOUTHEAST SOUTH DAKOTA

CITY           SKY/WX    TMP DP  RH WIND       PRES   REMARKS
SIOUX FALLS    MOSUNNY   68  47  46 S9        29.97F
HURON          SUNNY     72  46  39 S12       29.91F
CHAMBERLAIN    SUNNY     69  37  31 SW7       29.92F
MITCHELL       SUNNY     71  48  43 S13       29.93F
YANKTON        SUNNY     72  46  40 S12       29.96F
$$

ABBREVIATIONS USED IN REMARKS
   TC - TEMPERATURE IN CELSIUS
  WCI - WIND CHILL INDEX
   HX - HEAT INDEX
  VSB - VISIBILITY




USA.gov is the U.S. government's official web portal to all federal, state and local government web resources and services.